Find Starlink 5674

NORAD ID: 55465 Int'l Des: 2023-015 Owner: SPXS Country: US Constellation: starlink operational
LEOCIRCULAR

当前视图

正在加载3D地球...

About Starlink 5674

Starlink 5674 (NORAD 55465) is a starlink constellation satellite (v1.5) launched Feb 2, 2023 by SPXS of US. It operates in LEO, CIRCULAR orbit with a mass of 305.00 kg.

关于 Starlink 5674

正在加载描述...

即将过境

Passes for default location (London). Set your location on the main map for personalized predictions.

高度历史

Loading altitude history...

两行轨道根数

1 55465U 23015S 26165.65586551 -.00000183 00000-0 28866-5 0 9995
2 55465 43.0058 140.9423 0001494 266.4431 93.6250 15.27575500185550
Epoch: Jun 14, 2026 • Age: 30 hours

当前状态

高度 485.7 km
速度 7.63 km/s
星下点 36.08°N, 27.37°E
发射日期 Feb 2, 2023
运行时间 3.3 years
类型 internet

技术详情

分类 Payload
质量 305.00 kg
干质量 290.00 kg
总质量 305.00 kg
长度 0.20 m
直径 2.80 m
跨度 9.00 m
形状 Box + pan
制造商 SPXS
平台类型 Starlink
阶段状态 In Orbit
所有者/国家 SPXS/US

Most Searched